Regional Weather Roundup
Issued by NWS Cleveland, OH

Home | Current Version | Previous Version | Graphics & Text | Print | Product List | Glossary On
Versions: 1 2 3 4 5 6 7 8 9 10 11 12 13 14 15 16 17 18 19 20 21 22 23 24 25 26 27 28 29 30 31 32 33 34 35 36 37 38 39 40 41 42 43 44 45 46 47 48 49 50
338
ASUS41 KCLE 280910
RWRCLE
OHIO REGIONAL WEATHER ROUNDUP
NATIONAL WEATHER SERVICE CLEVELAND, OH
500 AM EDT WED JUN 28 2017

NOTE: "FAIR" INDICATES FEW OR NO CLOUDS BELOW 12,000 FEET WITH NO
SIGNIFICANT WEATHER AND/OR OBSTRUCTIONS TO VISIBILITY.

OHZ001>008-015>018-024>027-034-035-043-044-281000-
   NORTHWEST OHIO

CITY           SKY/WX    TMP DP  RH WIND       PRES   REMARKS
DEFIANCE       CLEAR     49  47  93 CALM      30.11S
FINDLAY        CLEAR     55  46  71 S3        30.11S
TOLEDO EXPRESS CLEAR     49  49 100 CALM      30.11R
TOLEDO EXEC    PTCLDY    54  50  86 CALM      30.12R
LIMA           CLEAR     55  47  74 S5        30.13R
$$

OHZ009>014-019>023-028>033-038-089-281000-
   NORTHEAST OHIO

CITY           SKY/WX    TMP DP  RH WIND       PRES   REMARKS
CLE-HOPKINS    CLEAR     57  46  66 SW6       30.13R
CLE-LAKEFRONT  CLEAR     61  45  55 SW14      30.10R
CUY CO. ARPT   NOT AVBL
LORAIN-ELYRIA  CLEAR     54  44  69 SW8       30.12R
ASHTABULA      CLEAR     55  47  74 SW5       30.11R
AKRON-CANTON   CLEAR     54  44  69 SW5       30.14R
WOOSTER        CLEAR     53  46  77 SW3       30.14R
MANSFIELD      CLEAR     55  45  68 SW6       30.14R
YOUNGSTOWN     PTCLDY    52  44  74 SW6       30.12R
$$

OHZ042-051>053-060>062-070>072-077>081-281000-
  SOUTHWEST OHIO

CITY           SKY/WX    TMP DP  RH WIND       PRES   REMARKS
CINC-COVINGTON CLEAR     53  50  89 CALM      30.13S
CINC-LUNKEN    CLEAR     52  52 100 CALM      30.15S
HAMILTON       CLEAR     50  49  96 CALM      30.15S FOG
DAYTON         CLEAR     57  46  66 S5        30.14F
WRIGHT-PAT AFB CLEAR     53  51  93 E3        30.13F
DAYTON GENERAL CLEAR     55  48  77 S3        30.13S
WILMINGTON     PTCLDY    52  51  97 CALM      30.14S
$$

OHZ036-037-039>041-045>050-054>059-063>069-073>076-082>088-281000-
  CENTRAL AND SOUTHEAST OHIO

CITY           SKY/WX    TMP DP  RH WIND       PRES   REMARKS
COLUMBUS       CLEAR     52  49  89 CALM      30.13F
OSU AIRPORT    CLEAR     52  48  86 CALM      30.14S
BOLTON FIELD   CLEAR     50  48  93 SW3       30.15S
RICKENBACK AFB CLEAR     52  49  92 S3        30.14S
NEWARK         CLEAR     48  45  89 CALM      30.14S
MARION         PTCLDY    52  45  77 S6        30.14S
LANCASTER      CLEAR     49  48  97 S3        30.15S
ZANESVILLE     CLEAR     50  47  89 CALM      30.15R
NEW PHILLY     NOT AVBL
$$




USA.gov is the U.S. government's official web portal to all federal, state and local government web resources and services.